Regional Weather Roundup
Issued by NWS Grand Forks, ND

Home | Current Version | Previous Version | Graphics & Text | Print | Product List | Glossary On
Versions: 1 2 3 4 5 6 7 8 9 10 11 12 13 14 15 16 17 18 19 20 21 22 23 24 25 26 27 28 29 30 31 32 33 34 35 36 37 38 39 40 41 42 43 44 45 46 47 48 49 50
000
ASUS43 KFGF 300010
RWRFGF
PRAIRIE TO PINES  WEATHER ROUNDUP
NATIONAL WEATHER SERVICE EASTERN NORTH DAKOTA/GRAND FORKS ND
700 PM CDT WED JUL 29 2015

 **SATELLITE DATA USED TO AUGMENT SKY COVER AT AUTOMATED STATIONS**
 *****  WEATHER ACROSS EASTERN NORTH DAKOTA  *****

CITY           SKY/WX    TMP DP  RH WIND       PRES   REMARKS
GRAND FORKS    MOSUNNY   80  54  40 NW15G31   29.85R
6HR MIN TEMP:  77; 6HR MAX TEMP:  82;

GRAND FRKS AFB SUNNY     78  54  43 NW15G25   29.87R
GRAND FRKS NWS   N/A     79 N/A N/A NW14        N/A
DEVILS LAKE    MOSUNNY   79  54  41 NW18G26   29.91S
6HR MIN TEMP:  75; 6HR MAX TEMP:  81;

FARGO          SUNNY     80  54  40 W15       29.92R
WAHPETON ARPT  PTCLDY    79  52  38 NW13      29.95S
$$

 ***** WEATHER ACROSS CENTRAL AND WESTERN NORTH DAKOTA  *****

CITY           SKY/WX    TMP DP  RH WIND       PRES   REMARKS
BISMARCK       SUNNY     82  46  28 W16G28    30.03F
6HR MIN TEMP:  78; 6HR MAX TEMP:  83;

MINOT          SUNNY     80  48  32 W21G30    29.98R
6HR MIN TEMP:  77; 6HR MAX TEMP:  82; 6HR PCP: TRACE;

JAMESTOWN      SUNNY     78  52  40 W17G25    29.98R
6HR MIN TEMP:  77; 6HR MAX TEMP:  81;

MINOT AFB      SUNNY     81  50  33 W21G26    29.96S
GARRISON         N/A     78  51  38 W13G25    30.01F
WILLISTON      SUNNY     81  43  26 NW21G26   30.06R
6HR MIN TEMP:  78; 6HR MAX TEMP:  84;

DICKINSON      SUNNY     79  44  28 NW18      30.08S
6HR MIN TEMP:  75; 6HR MAX TEMP:  82;

HETTINGER      SUNNY     80  40  23 W14       30.12F
6HR MIN TEMP:  76; 6HR MAX TEMP:  83;

$$

 *****  OTHER AIRPORT OBSERVATIONS IN OUR AREA  *****

CITY           SKY/WX    TMP DP  RH WIND       PRES   REMARKS
WALHALLA       FAIR      77  57  50 MISG      29.84R
GRAFTON AIRPOR FAIR      79  57  47 NW21G31   29.85R
VALLEY CITY AR FAIR      77  55  47 NW20      29.97R
CANDO          NOT AVBL
CAVALIER APRT  FAIR      77  55  47 NW13G30   29.83R
GWINNER        FAIR      79  54  41 W12G20    29.99S
SHEYENNE NWR     N/A     81  54  38 NW15      29.95S
ROLLA          FAIR      73  55  53 NW14G24   29.94R
 ***** THE ABOVE OBSERVATIONS ARE NON NWS ARE NOT QUALITY
       CONTROLLED AND MAY MIS-REPORT RAIN FOR SNOW...
$$

  *****  WEATHER ACROSS NORTHERN MINNESOTA  *****

CITY           SKY/WX    TMP DP  RH WIND       PRES   REMARKS
FLAG ISLAND    CLOUDY    66  57  72 W17       29.74F
WARROAD        CLOUDY    72  57  60 NW9       29.79R
ROSEAU         MOSUNNY   75  54  46 W17G24    29.80R
HALLOCK        MOSUNNY   77  52  41 NW13      29.81R
THF RVR FALLS  MOSUNNY   77  54  44 W15G23    29.85R
BAUDETTE       CLOUDY    72  52  49 W21G33    29.77R
6HR MIN TEMP:  66; 6HR MAX TEMP:  75;

WASKISH        MOSUNNY   73  55  53 W22G29    29.80R
CROOKSTON      MOSUNNY   79  55  44 NW18G31   29.87R
$$
  *****  WEATHER ACROSS CENTRAL AND WEST MINNESOTA  *****

CITY           SKY/WX    TMP DP  RH WIND       PRES   REMARKS
FOSSTON        MOSUNNY   75  52  43 W16G25    29.88R
BEMIDJI        MOSUNNY   76  53  45 W20G29    29.85S
PARK RAPIDS    PTSUNNY   77  54  44 W25G35    29.89S
6HR MIN TEMP:  75; 6HR MAX TEMP:  80;

ELBOW LAKE     FAIR      76  56  50 W9G20     29.96S
WADENA         MOSUNNY   75  52  43 W13G24    29.92S
DETROIT LAKES  MOSUNNY   77  54  44 W15G21    29.94R
MOORHEAD       MOSUNNY   77  55  47 W13G23    29.92S
FERGUS FALLS   SUNNY     75  55  50 W13G21    29.94R
MORRIS MN      SUNNY     79  57  47 NW13G18   29.97S
STAPLES        MOSUNNY   73  50  43 W13G23    29.92R
$$
  *****  WEATHER ELSEWHERE ACROSS MINNESOTA  *****

CITY           SKY/WX    TMP DP  RH WIND       PRES   REMARKS
DULUTH         MOSUNNY   75  53  46 W18G31    29.81S
6HR MIN TEMP:  70; 6HR MAX TEMP:  78;

INTRNTL FALLS  CLOUDY    71  55  56 W14G29    29.74R
6HR MIN TEMP:  63; 6HR MAX TEMP:  74; 6HR PCP: TRACE;

ELY            MOSUNNY   72  54  53 W16G23    29.75R
CLOQUET        PTSUNNY   75  48  38 W21G26    29.83S
WHEATON        SUNNY     75  54  46 W13G22    29.99S
BRAINERD       MOSUNNY   76  49  38 W20G32    29.90R
6HR MIN TEMP:  75; 6HR MAX TEMP:  79;

HIBBING        MOSUNNY   75  53  46 W16G24    29.80S
6HR MIN TEMP:  66; 6HR MAX TEMP:  76; 6HR PCP: TRACE;

ALEXANDRIA     SUNNY     78  53  41 NW18G28   29.97S
6HR MIN TEMP:  76; 6HR MAX TEMP:  81;

SAINT CLOUD    MOSUNNY   80  54  40 W15G28    29.92S
6HR MIN TEMP:  78; 6HR MAX TEMP:  82;

MINNEAPOLIS    MOSUNNY   81  53  37 W16G30    29.94S
6HR MIN TEMP:  80; 6HR MAX TEMP:  82;

$$

  *****  WEATHER ACROSS SOUTH DAKOTA  *****

CITY           SKY/WX    TMP DP  RH WIND       PRES   REMARKS
SIOUX FALLS    SUNNY     82  55  39 W6        30.07S
6HR MIN TEMP:  79; 6HR MAX TEMP:  83;

BROOKINGS      SUNNY     79  54  41 NW10      30.08S
WATERTOWN      SUNNY     79  50  36 W17G24    30.04F
6HR MIN TEMP:  77; 6HR MAX TEMP:  81;

HURON          SUNNY     83  53  35 NW9       30.04F
6HR MIN TEMP:  82; 6HR MAX TEMP:  86;

SISSETON         N/A     80  55  42 NW10      29.97F
ABERDEEN       SUNNY     83  45  26 NW18G32   30.03R
6HR MIN TEMP:  82; 6HR MAX TEMP:  85;

MITCHELL       SUNNY     85  48  27 NW13      30.07S
PIERRE         SUNNY     86  38  18 W21       30.07S
6HR MIN TEMP:  85; 6HR MAX TEMP:  88;

MOBRIDGE       SUNNY     84  47  27 NW15      30.04F
RAPID CITY     SUNNY     83  42  23 CALM      30.16F
6HR MIN TEMP:  77; 6HR MAX TEMP:  84;

$$

  *****  SOME WEATHER IN NEARBY STATES *****

CITY           SKY/WX    TMP DP  RH WIND       PRES   REMARKS
GLASGOW MT     MOSUNNY   81  41  24 W10       30.07F
6HR MIN TEMP:  76; 6HR MAX TEMP:  83;

GREAT FALLS MT SUNNY     82  35  18 W13G21    30.14F
6HR MIN TEMP:  74; 6HR MAX TEMP:  83;

CHEYENNE WY    MOSUNNY   78  48  34 SE14      30.30S
6HR MIN TEMP:  73; 6HR MAX TEMP:  82;

SCOTTSBLUFF NE SUNNY     86  50  28 E12       30.18F
6HR MIN TEMP:  76; 6HR MAX TEMP:  88;

OMAHA NE       PTSUNNY   82  57  42 W6        30.13F
6HR MIN TEMP:  81; 6HR MAX TEMP:  86;

DES MOINES IA  MOSUNNY   83  54  36 NW9       30.09F
6HR MIN TEMP:  83; 6HR MAX TEMP:  86;

DAVENPORT IA   SUNNY     79  60  52 W8        30.04S
6HR MIN TEMP:  79; 6HR MAX TEMP:  82;

CHICAGO IL     MOSUNNY   82  51  34 NW15      29.97R
6HR MIN TEMP:  82; 6HR MAX TEMP:  88;

EAU CLAIRE WI  MOSUNNY   79  56  45 W10G21    29.91S
6HR MIN TEMP:  79; 6HR MAX TEMP:  82;

LA CROSSE WI   SUNNY     82  54  37 W14       29.95S
6HR MIN TEMP:  82; 6HR MAX TEMP:  85;

$$

  *****  SOME NATIONAL WEATHER *****

CITY           SKY/WX    TMP DP  RH WIND       PRES   REMARKS
LA GUARDIA NY  MOCLDY    88  69  53 S12       29.90S HX  92
6HR MIN TEMP:  88; 6HR MAX TEMP:  95;

RALEIGH NC     MOCLDY    86  70  58 SE5       29.97R HX  90
6HR MIN TEMP:  86; 6HR MAX TEMP:  91;

ATLANTA GA     MOCLDY    88  74  63 E6        29.96R HX  96
6HR MIN TEMP:  84; 6HR MAX TEMP:  93; 6HR PCP:  0.03;

NEW ORLEANS LA CLOUDY    87  70  56 NE28G40   30.00R THUNDER HX  92
6HR MIN TEMP:  87; 6HR MAX TEMP:  99;

OKLAHOMA CITY  MOSUNNY   93  72  50 E8        30.02S HX 101
6HR MIN TEMP:  92; 6HR MAX TEMP:  96;

ALBUQUERQUE NM CLOUDY    74  61  63 NE9       30.25F
6HR MIN TEMP:  68; 6HR MAX TEMP:  83; 6HR PCP:  0.23;

SALT LAKE CITY SUNNY     86  21   9 N12       30.21F
6HR MIN TEMP:  76; 6HR MAX TEMP:  86;

LOS ANGELES CA MOSUNNY   72  63  73 W16       29.91F
6HR MIN TEMP:  71; 6HR MAX TEMP:  74;

BOISE ID       SUNNY     89  30  12 N6        30.14F
6HR MIN TEMP:  79; 6HR MAX TEMP:  89;



USA.gov is the U.S. government's official web portal to all federal, state and local government web resources and services.